Other Public Products
Issued by NWS Grand Forks, ND

Home | Current Version | Previous Version | Text Only | Print | Product List | Glossary On
Versions: 1 2 3 4 5 6 7 8 9 10 11 12 13 14 15 16 17 18 19 20 21 22 23 24 25 26 27 28 29 30 31 32 33 34 35 36 37 38 39 40 41 42 43 44 45 46 47 48 49 50
000
FPUS83 KFGF 061610
OPUFGF
PRAIRIE TO PINES WEATHER ROUNDUP
NATIONAL WEATHER SERVICE EASTERN NORTH DAKOTA/GRAND FORKS ND
1100 AM CDT FRI MAY 06 2016

 **SATELLITE DATA USED TO AUGMENT SKY COVER AT AUTOMATED STATIONS**
 *****  WEATHER ACROSS EASTERN NORTH DAKOTA  *****

CITY           SKY/WX    TMP DP  RH WIND       PRES   REMARKS
GRAND FORKS    CLOUDY    63  43  48 N22G35    29.78S
GRAND FORKS AF CLOUDY    64  43  45 N21G28    29.80R
GRAND CITY NWS NOT AVBL
BUXTON         NOT AVBL
DEVILS LAKE    SUNNY     65  43  44 N28G33    29.88R
FARGO          MOSUNNY   81  50  33 NW8       29.75R
WAHPETON ARPT  SUNNY     77  46  33 W3        29.76F
$$

 *****  WEATHER ACROSS CENTRAL AND WESTERN NORTH DAKOTA  *****

CITY           SKY/WX    TMP DP  RH WIND       PRES   REMARKS
JAMESTOWN      SUNNY     76  47  35 N18G26    29.81R
BISMARCK       SUNNY     71  49  45 N22G29    29.92R
MINOT          SUNNY     71  41  33 N23G31    29.98R
MINOT AFB      SUNNY     65  44  45 N20G28    29.97R
GARRISON         N/A     68  46  45 N16G28    29.96R
WILLISTON      PTSUNNY   59  43  55 N17       30.08R
DICKINSON      SUNNY     64  45  49 N20G26    29.99R
HETTINGER      MOSUNNY   69  46  43 N26G36    29.97R
$$

 *****  OTHER OBSERVATIONS NORTHEAST NORTH DAKOTA  *****

CITY           SKY/WX    TMP DP  RH WIND       PRES   REMARKS
WALHALLA       FAIR      63  39  42 N29G40    29.88R
LANGDON        FAIR      63  43  48 N22G33    29.89R
CAVALIER       FAIR      59  37  44 N24G39    29.84R
GRAFTON        FAIR      63  41  45 N30       29.83R
CANDO          FAIR      64  41  42 N24G35    29.94R
FORT TOTTEN      N/A     65  45  49 N7        29.95S
ROLLA          FAIR      59  37  44 N24G35    29.96R
RUGBY          FAIR      64  41  42 N20       29.94R
 ***** THE ABOVE OBSERVATIONS ARE NON NWS ARE NOT QUALITY
        CONTROLLED AND MAY MIS-REPORT RAIN FOR SNOW...
$$

 *****  OTHER OBSERVATIONS SOUTHEAST NORTH DAKOTA *****

CITY           SKY/WX    TMP DP  RH WIND       PRES   REMARKS
COOPERSTOWN    NOT AVBL
VALLEY CITY    FAIR      77  48  36 N17       29.80R
OAKES            N/A    N/A N/A N/A MISG        N/A
GWINNER        FAIR      81  52  36 W8        29.78R
SHEYENNE NWR     N/A     79  51  37 W7        29.95S
BUFFALO        NOT AVBL
WYNDMERE         N/A     81  52  36 W5          N/A
 ***** THE ABOVE OBSERVATIONS ARE NON NWS ARE NOT QUALITY
       CONTROLLED AND MAY MIS-REPORT RAIN FOR SNOW...
$$

  *****  WEATHER ACROSS NORTHERN MINNESOTA  *****

CITY           SKY/WX    TMP DP  RH WIND       PRES   REMARKS
FLAG ISLAND    CLOUDY    63  46  55 NW21      29.69R
WARROAD        SUNNY     70  52  52 NW20      29.72R
ROSEAU         MOSUNNY   73  46  38 NW20      29.73R
HALLOCK        MOSUNNY   66  37  34 N29G35    29.79S
THF RVR FALLS  CLOUDY    70  45  40 NW16      29.77R
HALSTAD        NOT AVBL
FOSSTON        MOSUNNY   77  45  31 W13       29.76R
BAUDETTE       CLOUDY    81  45  28 NW20      29.68R
WASKISH        MOSUNNY   72  52  49 SW9       29.70R
CROOKSTON      SUNNY     70  46  43 N26       29.78R
$$
  *****  WEATHER ACROSS CENTRAL AND WEST MINNESOTA  *****

CITY           SKY/WX    TMP DP  RH WIND       PRES   REMARKS
BEMIDJI        MOSUNNY   82  47  30 W12       29.72F
PARK RAPIDS    SUNNY     81  48  31 W5        29.75F
WADENA         SUNNY     79  52  38 SW10      29.76S
DETROIT LAKES  SUNNY     77  50  38 W8        29.78S
MOORHEAD       SUNNY     79  48  34 NW7       29.76R
FERGUS FALLS   SUNNY     77  52  41 W3        29.73F
ELBOW LAKE     FAIR      76  52  42 SW6       29.77F
MORRIS MN      MOSUNNY   77  52  41 SW9       29.76F
STAPLES        SUNNY     81  48  32 SW9       29.76F
WHEATON        SUNNY     81  55  41 W5        29.77F
$$
  *****  WEATHER ELSEWHERE ACROSS MINNESOTA  *****

CITY           SKY/WX    TMP DP  RH WIND       PRES   REMARKS
DULUTH         SUNNY     85  43  22 W18       29.75F
INTRNTL FALLS  MOSUNNY   80  47  31 SW12G23   29.65F
ELY            SUNNY     82  43  24 W13G18    29.69F
CLOQUET        SUNNY     84  39  20 SW12G17   29.75F
BRAINERD       SUNNY     81  49  32 SW9       29.76F
HIBBING        SUNNY     82  44  26 W10G21    29.72F
ALEXANDRIA     SUNNY     75  49  39 SW8       29.79F
SAINT CLOUD    SUNNY     80  49  33 SW13      29.79F
MINNEAPOLIS    SUNNY     79  49  34 W10       29.84F
$$

  *****  WEATHER ACROSS SOUTH DAKOTA  *****

CITY           SKY/WX    TMP DP  RH WIND       PRES   REMARKS
SIOUX FALLS    MOSUNNY   75  51  43 SW14G22   29.89F
BROOKINGS      SUNNY     77  52  41 SW22G29   29.82F
WATERTOWN      SUNNY     76  52  43 W18       29.81S
HURON          SUNNY     79  56  45 SW9       29.82F
SISSETON         N/A     79  54  41 W8G17     29.76R
ABERDEEN       MOSUNNY   79  52  38 W8        29.80S
MITCHELL       SUNNY     79  52  38 SW15G22   29.86F
PIERRE         SUNNY     73  54  51 SW6       29.83S
MOBRIDGE       SUNNY     76  55  48 NW7       29.82R HAZE
RAPID CITY     CLOUDY    77  48  35 N16       29.92R
$$

  *****  SOME WEATHER IN NEARBY STATES *****

CITY           SKY/WX    TMP DP  RH WIND       PRES   REMARKS
GLASGOW MT     CLOUDY    56  45  66 N13       30.18R
GREAT FALLS MT CLOUDY    48  44  86 N10       30.28S
CHEYENNE WY    CLOUDY    67  43  41 SW7       30.01F
SCOTTSBLUFF NE SUNNY     68  48  48 SE13      29.95S
OMAHA NE       MOSUNNY   77  46  33 SW12      30.00F
DES MOINES IA  MOSUNNY   77  46  33 W12       30.00F
DAVENPORT IA   SUNNY     73  43  33 W12       30.00F
CHICAGO IL     PTSUNNY   67  43  41 SW12      29.97F
EAU CLAIRE WI  SUNNY     80  45  28 W9        29.84F
LA CROSSE WI   SUNNY     74  48  39 S7        29.88F
$$

  *****  SOME NATIONAL WEATHER *****

CITY           SKY/WX    TMP DP  RH WIND       PRES   REMARKS
LA GUARDIA NY  CLOUDY    51  48  89 NE18      29.73S
RALEIGH NC     PTSUNNY   60  49  66 VRB6G17   29.75R
ATLANTA GA     PTSUNNY   65  42  43 NW14G28   29.94F
NEW ORLEANS LA MOSUNNY   72  48  42 N7        30.08S
OKLAHOMA CITY  PTSUNNY   72  54  53 S8        30.12S
ALBUQUERQUE NM SUNNY     75  24  15 S21G28    30.00S
SALT LAKE CITY CLOUDY    67  42  40 E17G28    29.82S
LOS ANGELES CA PTSUNNY   60  53  77 SE5       29.88R
BOISE ID       CLOUDY    59  51  75 SW5       29.81F
SEATTLE WA     MOSUNNY   61  46  57 N12       30.10S
$$

*** WEATHER ACROSS MANITOBA...SASKATCHEWAN AND ONTARIO ***
                ***ONTARIO***

CITY           SKY/WX    TMP DP  RH WIND       PRES   REMARKS
GERALDTON      CLOUDY    63  43  48 SE8       29.65F
THUNDER BAY    PTSUNNY   55  39  54 E9        29.70F
SIOUX LOOKOUT  PTSUNNY   77  46  33 W8        29.57F
TORONTO        MOSUNNY   66  39  37 NE10G20   29.88S
BIG TROUT LK   CLOUDY    37  21  52 SE6       29.69F
PICKLE LAKE    CLOUDY    57  41  54 SE9       29.56F
DRYDEN         SUNNY     77  41  27 W12G17    29.59F
KENORA         PTSUNNY   70  46  43 NW14G23   29.66R SMOKE
$$
                *** MANITOBA***

CITY           SKY/WX    TMP DP  RH WIND       PRES   REMARKS
BRANDON        CLOUDY    64  39  39 N23       29.99R
DAUPHIN        SUNNY     59  39  47 N15       30.00R
ISLAND LAKE    PTSUNNY   39  27  60 NW13G20   29.80R
PILOT MOUND      N/A     61  41  48 N24G32      N/A
THE PAS        CLOUDY    52  37  58 NW10      29.99R
THOMPSON       NOT AVBL
WINNIPEG       MOSUNNY   61  37  41 N23G32    29.88R
LYNN LAKE      SUNNY     52  36  54 W13G23    29.91F
CHURCHILL      LGT SNOW  27  23  86 S8        29.91F WCI  18
GILLAM         CLOUDY    27  21  80 N3        29.89S
$$
                ***SASKATCHEWAN***

CITY           SKY/WX    TMP DP  RH WIND       PRES   REMARKS
ESTEVAN        CLOUDY    59  45  58 N16       30.07R
KINDERSLEY     CLOUDY    55  37  50 NW7       30.22R
LLOYDMINSTER   CLOUDY    50  32  50 N5        30.22R
PRINCE ALBERT  MOSUNNY   59  34  38 NE20      30.10S
REGINA         PTSUNNY   59  34  38 N14       30.14S
YORKTON        SUNNY     59  37  44 NW14G20   30.07R  C1F1C2F2C3F3C4F4C5F5C6F6C7F7C8F8C9F9CaFaCbFbCcFcCdFdCe!


USA.gov is the U.S. government's official web portal to all federal, state and local government web resources and services.